User: anonymous   Login
Location: Unspecified
(0.0000°N, 0.0000°E)
Time: 02:09:51
(UTC+00:00)
Language:

ONEWEB-0088 - Orbit

View from above orbital plane
View from above orbital plane
View from above satellite
View from above satellite

Ground track
Ground track

The orbit is defined by the following mean orbital elements,

1 45457U          26145.62219122 +.00000000 +00000-0 -13186-2 0 00003
2 45457  87.8927  25.5207 0002166  87.6637 272.4739 13.11417290    04
Epoch (UTC): 25 May 2026 14:55:57
Eccentricity: 0.0002166
inclination: 87.8927°
perigee height: 1216 km
apogee height: 1219 km
right ascension of ascending node: 25.5207°
argument of perigee: 87.6637°
revolutions per day: 13.11417290
mean anomaly at epoch: 272.4739°

The dashed part of the orbit path shows where the satellite is in the earth's shadow,  

DLR